FW6583 Weather Reports


Display with metric or nautical units.
time (UTC)temp
F
wind
direction
speed
MPH
gust
MPH
rain 1hr
in
rain 24hr
in
rain mn
in
humidity
%
barometer
mb
20260509214546 66 115 1.0 4.0 0.00 0.15 0.15 66 1011.7
20260509214024 66 338 2.0 5.0 0.00 0.15 0.15 63 1011.7
20260509213527 66 301 2.0 5.0 0.00 0.15 0.15 63 1011.7
20260509213041 66 17 3.0 5.0 0.00 0.15 0.15 62 1011.8
20260509212524 66 259 1.0 5.0 0.00 0.15 0.15 65 1011.8
20260509212023 66 15 1.0 5.0 0.00 0.15 0.15 63 1011.7
20260509211545 66 241 1.0 4.0 0.00 0.15 0.15 64 1011.7
20260509211024 66 47 1.0 4.0 0.00 0.15 0.15 65 1011.7
20260509210524 66 312 2.0 4.0 0.00 0.15 0.15 62 1011.7
20260509210042 66 323 1.0 4.0 0.00 0.15 0.15 62 1011.7
20260509205522 66 248 1.0 5.0 0.00 0.15 0.15 62 1011.7
20260509205023 67 303 2.0 5.0 0.00 0.15 0.15 62 1011.8
20260509204555 67 34 2.0 5.0 0.00 0.15 0.15 61 1011.6
20260509204026 67 308 1.0 5.0 0.00 0.15 0.15 66 1011.7
20260509203527 67 34 3.0 5.0 0.00 0.15 0.15 62 1011.8
20260509203047 68 214 0.0 4.0 0.00 0.15 0.15 66 1011.8
20260509202524 67 0 1.0 4.0 0.00 0.15 0.15 66 1011.8
20260509202026 66 103 1.0 4.0 0.00 0.15 0.15 69 1011.9
20260509201541 65 58 0.0 2.0 0.00 0.15 0.15 68 1012.0
20260509201023 64 0 1.0 3.0 0.00 0.15 0.15 68 1012.0
20260509200523 65 0 1.0 3.0 0.00 0.15 0.15 68 1012.0
20260509200045 65 80 1.0 4.0 0.00 0.15 0.15 67 1012.1
20260509195524 65 34 2.0 4.0 0.00 0.15 0.15 69 1012.2
20260509195026 65 44 1.0 3.0 0.00 0.15 0.15 69 1012.2
20260509194545 64 333 1.0 3.0 0.00 0.15 0.15 72 1012.4
20260509194023 64 307 0.0 4.0 0.00 0.15 0.15 71 1012.4
20260509193524 64 25 2.0 5.0 0.00 0.15 0.15 70 1012.4
20260509193046 64 330 1.0 5.0 0.00 0.15 0.15 71 1012.3
20260509192527 63 13 2.0 5.0 0.00 0.15 0.15 73 1012.3
20260509192027 63 17 2.0 4.0 0.00 0.15 0.15 73 1012.4
20260509191551 63 356 1.0 2.0 0.00 0.15 0.15 76 1012.4
20260509191026 62 312 1.0 2.0 0.00 0.15 0.15 79 1012.4
20260509190527 62 0 0.0 2.0 0.00 0.15 0.15 80 1012.5
20260509190047 61 311 0.0 2.0 0.00 0.15 0.15 81 1012.4
20260509185529 61 40 0.0 2.0 0.00 0.15 0.15 81 1012.5
20260509185030 60 15 0.0 1.0 0.00 0.15 0.15 82 1012.5
20260509184542 60 0 0.0 1.0 0.00 0.15 0.15 84 1012.4
20260509184027 59 0 0.0 2.0 0.00 0.15 0.15 84 1012.4
20260509183526 59 21 0.0 2.0 0.00 0.15 0.15 85 1012.4
20260509183042 59 349 0.0 2.0 0.00 0.15 0.15 88 1012.5
20260509182523 59 0 0.0 2.0 0.00 0.15 0.15 87 1012.4
20260509182024 58 0 0.0 0.0 0.00 0.15 0.15 89 1012.4
20260509181543 58 0 0.0 0.0 0.00 0.15 0.15 90 1012.5
20260509181027 58 0 0.0 0.0 0.00 0.15 0.15 89 1012.4
20260509180529 58 0 0.0 0.0 0.00 0.15 0.15 93 1012.5
20260509180042 58 0 0.0 0.0 0.00 0.15 0.15 93 1012.5
20260509175525 57 0 0.0 0.0 0.00 0.15 0.15 93 1012.5
20260509175028 57 0 0.0 0.0 0.00 0.15 0.15 94 1012.5
20260509174551 56 0 0.0 0.0 0.00 0.15 0.15 94 1012.5
20260509174022 56 0 0.0 0.0 0.00 0.15 0.15 95 1012.6
20260509173523 56 0 0.0 0.0 0.00 0.15 0.15 94 1012.6
20260509173049 55 0 0.0 0.0 0.00 0.15 0.15 94 1012.7
20260509172526 55 0 0.0 0.0 0.00 0.15 0.15 94 1012.7
20260509172024 55 0 0.0 0.0 0.00 0.15 0.15 93 1012.6
20260509171550 55 0 0.0 0.0 0.00 0.15 0.15 93 1012.7
20260509171023 55 0 0.0 0.0 0.00 0.15 0.15 93 1012.8
20260509170526 56 0 0.0 0.0 0.00 0.15 0.15 93 1012.8
20260509170046 56 0 0.0 0.0 0.00 0.15 0.15 93 1012.8
20260509165524 56 0 0.0 0.0 0.00 0.15 0.15 94 1012.8
20260509165027 56 0 0.0 0.0 0.00 0.15 0.15 95 1012.9
20260509164546 56 0 0.0 0.0 0.00 0.15 0.15 95 1012.8
20260509164024 56 0 0.0 0.0 0.00 0.15 0.15 95 1012.7
20260509163523 56 0 0.0 0.0 0.00 0.15 0.15 95 1012.7
20260509163047 56 0 0.0 0.0 0.00 0.15 0.15 96 1012.7
20260509162524 55 0 0.0 0.0 0.00 0.15 0.15 96 1012.8
20260509162033 55 0 0.0 0.0 0.00 0.15 0.15 95 1012.6
20260509161543 55 0 0.0 0.0 0.00 0.15 0.15 95 1012.7
20260509161026 54 0 0.0 0.0 0.00 0.15 0.15 95 1012.8
20260509160524 54 0 0.0 0.0 0.00 0.15 0.15 95 1012.8
20260509160046 54 0 0.0 0.0 0.00 0.15 0.15 94 1012.8
20260509155523 54 0 0.0 0.0 0.01 0.15 0.15 95 1012.9
20260509155023 54 0 0.0 0.0 0.01 0.15 0.15 95 1013.1
20260509154557 54 0 0.0 0.0 0.01 0.15 0.15 95 1013.0
20260509154024 55 0 0.0 0.0 0.01 0.15 0.15 95 1013.2
20260509153523 54 0 0.0 0.0 0.01 0.15 0.15 95 1013.2
20260509153039 54 0 0.0 0.0 0.01 0.15 0.15 96 1013.1
20260509152524 54 0 0.0 0.0 0.01 0.15 0.15 96 1013.2
20260509152023 54 0 0.0 0.0 0.01 0.15 0.15 95 1013.1
20260509151543 54 0 0.0 0.0 0.01 0.15 0.15 95 1013.3
20260509151023 54 0 0.0 0.0 0.01 0.15 0.15 96 1013.3
20260509150523 54 0 0.0 0.0 0.01 0.15 0.15 96 1013.4
20260509150039 54 0 0.0 0.0 0.01 0.15 0.15 96 1013.3
20260509145523 54 0 0.0 0.0 0.00 0.14 0.14 96 1013.5
20260509145025 53 0 0.0 0.0 0.00 0.14 0.14 96 1013.4
20260509144600 53 0 0.0 0.0 0.00 0.14 0.14 96 1013.3
20260509144024 53 0 0.0 0.0 0.00 0.14 0.14 96 1013.4
20260509143527 53 0 0.0 0.0 0.01 0.14 0.14 96 1013.3
20260509143045 53 0 0.0 0.0 0.01 0.14 0.14 96 1013.4
20260509142523 52 0 0.0 0.0 0.01 0.14 0.14 96 1013.3
20260509142023 52 0 0.0 0.0 0.01 0.14 0.14 96 1013.3
20260509141544 52 0 0.0 0.0 0.01 0.14 0.14 96 1013.2
20260509141023 52 0 0.0 0.0 0.01 0.14 0.14 96 1013.2
20260509140523 52 0 0.0 0.0 0.01 0.14 0.14 96 1013.3
20260509140100 52 0 0.0 0.0 0.02 0.14 0.14 96 1013.4
20260509135526 52 0 0.0 0.0 0.02 0.14 0.14 96 1013.4
20260509135026 52 0 0.0 0.0 0.02 0.14 0.14 96 1013.4
20260509134549 52 0 0.0 0.0 0.02 0.14 0.14 96 1013.5
20260509134022 52 0 0.0 0.0 0.02 0.14 0.14 96 1013.5
20260509133525 52 0 0.0 0.0 0.02 0.13 0.13 96 1013.5
20260509133042 52 0 0.0 0.0 0.02 0.13 0.13 96 1013.3
20260509132525 51 0 0.0 0.0 0.03 0.13 0.13 96 1013.4
20260509132026 51 0 0.0 0.0 0.03 0.13 0.13 96 1013.5
20260509131554 51 0 0.0 0.0 0.04 0.13 0.13 96 1013.4
20260509131023 51 0 0.0 0.0 0.04 0.13 0.13 96 1013.5
20260509130523 51 0 0.0 0.0 0.04 0.13 0.13 96 1013.6
20260509130044 51 0 0.0 0.0 0.03 0.12 0.12 96 1013.5
20260509125527 51 0 0.0 1.0 0.04 0.12 0.12 96 1013.5
20260509125025 51 0 0.0 1.0 0.04 0.12 0.12 96 1013.6
20260509124543 51 98 0.0 1.0 0.04 0.12 0.12 96 1013.6
20260509124023 51 98 0.0 1.0 0.04 0.12 0.12 96 1013.8
20260509123523 51 0 0.0 1.0 0.04 0.11 0.11 95 1013.8
20260509123041 51 97 0.0 1.0 0.04 0.11 0.11 95 1013.9
20260509122522 50 0 0.0 1.0 0.03 0.10 0.10 95 1013.9
20260509122023 50 0 0.0 1.0 0.03 0.10 0.10 95 1013.8
20260509121549 50 108 0.0 1.0 0.02 0.09 0.09 95 1013.8
20260509121026 50 0 0.0 1.0 0.02 0.09 0.09 95 1013.8
20260509120523 50 0 0.0 1.0 0.02 0.09 0.09 95 1013.9
20260509120044 50 0 0.0 1.0 0.02 0.09 0.09 95 1014.1
20260509115526 50 0 0.0 1.0 0.01 0.08 0.08 95 1014.0
20260509115023 50 0 0.0 1.0 0.01 0.08 0.08 95 1014.0
20260509114546 50 0 0.0 1.0 0.01 0.08 0.08 95 1014.0
20260509114023 50 0 0.0 0.0 0.02 0.08 0.08 95 1013.9
20260509113523 50 0 0.0 1.0 0.01 0.07 0.07 95 1013.8
20260509113042 50 0 0.0 3.0 0.01 0.07 0.07 95 1013.7
20260509112524 50 107 0.0 3.0 0.01 0.07 0.07 95 1013.6
20260509112024 50 107 1.0 3.0 0.01 0.07 0.07 95 1013.6
20260509111539 50 0 0.0 2.0 0.02 0.07 0.07 95 1013.5
20260509111023 50 0 0.0 2.0 0.02 0.07 0.07 95 1013.5
20260509110523 50 0 0.0 1.0 0.02 0.07 0.07 95 1013.5
20260509110040 50 115 0.0 1.0 0.02 0.07 0.07 94 1013.4
20260509105522 50 115 0.0 1.0 0.02 0.07 0.07 94 1013.4
20260509105023 50 115 0.0 1.0 0.02 0.07 0.07 94 1013.4
20260509104545 50 113 0.0 1.0 0.01 0.06 0.06 94 1013.3
20260509104024 50 0 0.0 1.0 0.02 0.06 0.06 94 1013.4
20260509103523 50 0 0.0 2.0 0.02 0.06 0.06 94 1013.4
20260509103045 50 0 0.0 2.0 0.02 0.06 0.06 94 1013.4
20260509102523 50 123 0.0 2.0 0.02 0.06 0.06 94 1013.4
20260509102024 50 122 0.0 1.0 0.03 0.06 0.06 94 1013.4
20260509101544 50 127 0.0 2.0 0.02 0.05 0.05 93 1013.6
20260509101025 50 127 0.0 2.0 0.02 0.05 0.05 93 1013.5
20260509100525 50 117 0.0 1.0 0.02 0.05 0.05 93 1013.7
20260509100043 50 0 0.0 2.0 0.02 0.05 0.05 93 1013.5
20260509095528 50 115 0.0 2.0 0.03 0.05 0.05 93 1013.5
20260509095025 50 123 0.0 1.0 0.03 0.05 0.05 92 1013.6
20260509094539 51 125 1.0 2.0 0.03 0.05 0.05 92 1013.9
20260509094023 51 0 0.0 2.0 0.02 0.04 0.04 92 1013.8
20260509093525 51 120 0.0 1.0 0.03 0.04 0.04 91 1013.9
20260509093039 51 120 0.0 1.0 0.04 0.04 0.04 90 1013.8
20260509092522 51 123 0.0 1.0 0.03 0.03 0.03 90 1013.9
20260509092022 51 0 0.0 2.0 0.03 0.03 0.03 89 1014.1
20260509091543 51 120 0.0 2.0 0.03 0.03 0.03 88 1014.0
20260509091024 52 0 0.0 1.0 0.03 0.03 0.03 87 1014.1
20260509090526 52 0 0.0 1.0 0.03 0.03 0.03 87 1014.0
20260509090054 52 0 0.0 1.0 0.03 0.03 0.03 86 1014.1
20260509085523 52 0 0.0 1.0 0.02 0.02 0.02 84 1014.2
20260509085023 53 0 0.0 1.0 0.02 0.02 0.02 84 1014.2
20260509084543 53 0 0.0 1.0 0.02 0.02 0.02 82 1014.1
20260509084023 54 0 0.0 1.0 0.02 0.02 0.02 80 1013.9
20260509083524 54 0 0.0 3.0 0.01 0.01 0.01 78 1014.0
20260509083048 55 0 1.0 3.0 0.00 0.00 0.00 76 1014.1
20260509082523 55 344 1.0 4.0 0.00 0.00 0.00 72 1014.1
20260509082023 55 294 1.0 7.0 0.00 0.00 0.00 71 1014.2
20260509081544 56 33 3.0 7.0 0.00 0.00 0.00 69 1014.1
20260509081024 56 9 3.0 7.0 0.00 0.00 0.00 68 1014.1
20260509080522 56 300 1.0 3.0 0.00 0.00 0.00 67 1013.8
20260509080047 56 328 0.0 2.0 0.00 0.00 0.00 68 1013.7
20260509075530 56 252 0.0 2.0 0.00 0.00 0.00 67 1013.4
20260509075025 56 270 0.0 2.0 0.00 0.00 0.00 66 1013.2
20260509074540 56 39 0.0 3.0 0.00 0.00 0.00 65 1013.0
20260509074025 56 45 1.0 3.0 0.00 0.00 0.00 66 1012.8
20260509073523 56 0 0.0 3.0 0.00 0.00 0.00 66 1012.8
20260509073045 56 39 0.0 3.0 0.00 0.00 0.00 66 1012.8
20260509072523 56 0 0.0 5.0 0.00 0.00 0.00 66 1012.7
20260509072022 56 0 1.0 5.0 0.00 0.00 0.00 66 1012.6
20260509071549 56 14 0.0 2.0 0.00 0.00 0.00 67 1012.6
20260509071025 56 0 0.0 0.0 0.00 0.00 0.00 66 1012.5
20260509070525 56 0 0.0 0.0 0.00 0.00 0.00 66 1012.6
20260509070046 56 0 0.0 0.0 0.00 0.00 0.00 64 1012.4
20260509065526 56 0 0.0 0.0 0.00 0.00 0.00 64 1012.4
20260509065026 56 0 0.0 0.0 0.00 0.00 0.00 63 1012.5
20260509064547 56 0 0.0 1.0 0.00 0.00 0.00 63 1012.4
20260509064029 56 0 0.0 2.0 0.00 0.00 0.00 62 1012.4
20260509063529 56 0 0.0 2.0 0.00 0.00 0.00 63 1012.4
20260509063041 56 0 0.0 2.0 0.00 0.00 0.00 63 1012.4
20260509062528 56 0 0.0 0.0 0.00 0.00 0.00 65 1012.5
20260509062031 56 0 0.0 0.0 0.00 0.00 0.00 63 1012.7
20260509061542 56 0 0.0 0.0 0.00 0.00 0.00 63 1012.6
20260509061026 56 0 0.0 0.0 0.00 0.00 0.00 65 1012.7
20260509060527 56 0 0.0 0.0 0.00 0.00 0.00 64 1012.8
20260509060043 55 0 0.0 0.0 0.00 0.00 0.00 65 1012.7
20260509055524 56 0 0.0 0.0 0.00 0.00 0.00 68 1012.8
20260509055026 56 0 0.0 0.0 0.00 0.00 0.00 65 1012.8
20260509054541 55 0 0.0 0.0 0.00 0.00 0.00 67 1012.8
20260509054028 56 0 0.0 0.0 0.00 0.00 0.00 70 1013.1
20260509053527 56 0 0.0 0.0 0.00 0.00 0.00 67 1013.0
20260509053107 57 0 0.0 0.0 0.00 0.00 0.00 68 1013.0
20260509052527 57 0 0.0 0.0 0.00 0.00 0.00 68 1013.2
20260509052024 58 0 0.0 0.0 0.00 0.00 0.00 60 1013.0
20260509051541 58 0 0.0 0.0 0.00 0.00 0.00 58 1013.0
20260509051024 57 0 0.0 0.0 0.00 0.00 0.00 59 1013.2
20260509050524 57 0 0.0 0.0 0.00 0.00 0.00 61 1013.5
20260509050044 57 0 0.0 0.0 0.00 0.00 0.00 61 1013.5
20260509045525 57 0 0.0 0.0 0.00 0.00 0.00 62 1013.5
20260509045025 57 0 0.0 0.0 0.00 0.00 0.00 62 1013.4
20260509044539 57 0 0.0 0.0 0.00 0.00 0.00 60 1013.4
20260509044027 57 0 0.0 0.0 0.00 0.00 0.00 59 1013.4
20260509043525 57 0 0.0 0.0 0.00 0.00 0.00 59 1013.6
20260509043101 57 0 0.0 0.0 0.00 0.00 0.00 62 1013.6
20260509042527 57 0 0.0 0.0 0.00 0.00 0.00 63 1013.7
20260509042025 57 0 0.0 0.0 0.00 0.00 0.00 64 1013.8
20260509041556 57 0 0.0 0.0 0.00 0.00 0.00 66 1013.8
20260509041024 57 0 0.0 0.0 0.00 0.00 0.00 64 1013.9
20260509040524 57 0 0.0 0.0 0.00 0.00 0.00 61 1013.9
20260509040055 58 0 0.0 0.0 0.00 0.00 0.00 61 1014.0
20260509035541 58 0 0.0 0.0 0.00 0.00 0.00 59 1013.8
20260509035024 57 0 0.0 0.0 0.00 0.00 0.00 60 1013.8
20260509034558 58 0 0.0 0.0 0.00 0.00 0.00 61 1013.9
20260509034025 58 0 0.0 0.0 0.00 0.00 0.00 61 1014.0
20260509033524 58 0 0.0 0.0 0.00 0.00 0.00 58 1013.8
20260509033039 58 0 0.0 0.0 0.00 0.00 0.00 59 1013.9
20260509032524 58 0 0.0 0.0 0.00 0.00 0.00 59 1013.9
20260509032024 58 0 0.0 0.0 0.00 0.00 0.00 58 1014.1
20260509031541 58 0 0.0 0.0 0.00 0.00 0.00 59 1014.0
20260509031024 58 0 0.0 0.0 0.00 0.00 0.00 58 1014.0
20260509030525 58 0 0.0 0.0 0.00 0.00 0.00 58 1014.1
20260509030046 58 0 0.0 0.0 0.00 0.00 0.00 57 1014.2
20260509025524 58 0 0.0 0.0 0.00 0.00 0.00 58 1014.2
20260509025024 58 0 0.0 0.0 0.00 0.00 0.00 58 1014.3
20260509024543 58 0 0.0 0.0 0.00 0.00 0.00 58 1014.3
20260509024028 58 0 0.0 0.0 0.00 0.00 0.00 60 1014.4
20260509023524 59 0 0.0 0.0 0.00 0.00 0.00 59 1014.3
20260509023041 59 0 0.0 0.0 0.00 0.00 0.00 56 1014.2
20260509022524 59 0 0.0 0.0 0.00 0.00 0.00 56 1014.1
20260509022024 59 0 0.0 0.0 0.00 0.00 0.00 56 1014.2
20260509021544 59 0 0.0 0.0 0.00 0.00 0.00 55 1014.1
20260509021025 59 0 0.0 0.0 0.00 0.00 0.00 55 1014.2
20260509020524 60 0 0.0 0.0 0.00 0.00 0.00 55 1014.2
20260509020050 59 0 0.0 0.0 0.00 0.00 0.00 54 1014.2
20260509015524 60 0 0.0 0.0 0.00 0.00 0.00 54 1014.3
20260509015024 60 0 0.0 0.0 0.00 0.00 0.00 54 1014.4
20260509014539 60 0 0.0 0.0 0.00 0.00 0.00 53 1014.1
20260509014027 60 0 0.0 0.0 0.00 0.00 0.00 53 1014.0
20260509013524 60 0 0.0 0.0 0.00 0.00 0.00 54 1014.1
20260509013050 60 0 0.0 0.0 0.00 0.00 0.00 53 1013.9
20260509012527 60 0 0.0 0.0 0.00 0.00 0.00 54 1013.9
20260509012024 60 0 0.0 0.0 0.00 0.00 0.00 54 1013.9
20260509011542 60 0 0.0 0.0 0.00 0.00 0.00 53 1013.8
20260509011023 60 0 0.0 0.0 0.00 0.00 0.00 53 1013.8
20260509010524 60 0 0.0 0.0 0.00 0.00 0.00 53 1013.8
20260509010052 60 0 0.0 0.0 0.00 0.00 0.00 54 1013.6
20260509005526 60 0 0.0 0.0 0.00 0.00 0.00 54 1013.7
20260509005028 60 0 0.0 0.0 0.00 0.00 0.00 54 1013.7
20260509004544 60 0 0.0 0.0 0.00 0.00 0.00 54 1013.7
20260509004045 60 0 0.0 0.0 0.00 0.00 0.00 53 1013.8
20260509003524 60 0 0.0 0.0 0.00 0.00 0.00 54 1013.7
20260509003041 61 0 0.0 0.0 0.00 0.00 0.00 53 1013.7
20260509002524 61 0 0.0 0.0 0.00 0.00 0.00 53 1013.7
20260509002024 61 0 0.0 0.0 0.00 0.00 0.00 53 1013.7
20260509001539 61 0 0.0 0.0 0.00 0.00 0.00 53 1013.7
20260509001025 61 0 0.0 1.0 0.00 0.00 0.00 53 1013.5
20260509000524 61 0 0.0 2.0 0.00 0.00 0.00 52 1013.6
20260509000043 61 0 0.0 2.0 0.00 0.00 0.00 52 1013.7
20260508235524 62 0 0.0 1.0 0.00 0.00 0.00 52 1013.7
20260508235025 62 0 0.0 2.0 0.00 0.00 0.00 53 1013.7
20260508234548 62 0 0.0 2.0 0.00 0.00 0.00 52 1013.8
20260508234026 62 39 0.0 1.0 0.00 0.00 0.00 52 1013.7
20260508233528 62 39 0.0 1.0 0.00 0.00 0.00 51 1013.6
20260508233045 62 0 0.0 1.0 0.00 0.00 0.00 52 1013.6
20260508232524 62 0 0.0 1.0 0.00 0.00 0.00 53 1013.7
20260508232023 62 0 0.0 1.0 0.00 0.00 0.00 50 1013.5
20260508231541 63 0 0.0 1.0 0.00 0.00 0.00 52 1013.5
20260508231027 63 70 0.0 1.0 0.00 0.00 0.00 54 1013.6
20260508230524 63 0 0.0 1.0 0.00 0.00 0.00 52 1013.6
20260508230049 64 0 0.0 3.0 0.00 0.00 0.00 49 1013.5
20260508225524 64 0 0.0 3.0 0.00 0.00 0.00 48 1013.6
20260508225024 64 117 0.0 5.0 0.00 0.00 0.00 48 1013.3
20260508224543 64 20 1.0 5.0 0.00 0.00 0.00 48 1013.3
20260508224024 65 345 1.0 4.0 0.00 0.00 0.00 47 1013.4
20260508223524 65 12 1.0 5.0 0.00 0.00 0.00 47 1013.4
20260508223039 65 30 1.0 5.0 0.00 0.00 0.00 48 1013.5
20260508222526 65 0 1.0 5.0 0.00 0.00 0.00 47 1013.5
20260508222023 65 37 2.0 4.0 0.00 0.00 0.00 47 1013.5
20260508221544 64 43 1.0 4.0 0.00 0.00 0.00 50 1013.5
20260508221024 63 8 2.0 3.0 0.00 0.00 0.00 47 1013.5
20260508220525 63 0 0.0 2.0 0.00 0.00 0.00 50 1013.8
20260508220047 63 8 1.0 2.0 0.00 0.00 0.00 51 1013.8
20260508215524 63 0 0.0 2.0 0.00 0.00 0.00 51 1013.8
20260508215024 64 339 1.0 3.0 0.00 0.00 0.00 50 1013.7